sat.trackr.live / text

‹ back to catalog

STARLINK-32816

NORAD 63050 · 2025-034X

PAYLOAD ACTIVE UNKNOWN

§ Identity

Operator
Country
US
Launch date
2025-02-18
Launch site
AFETR
Launch vehicle
Mass (kg)
RCS (m²)

Purposes: comms

External: N2YO · Heavens-Above · Gunter

§ Orbital elements

Epoch: 2026-05-24T20:19:22.872000Z

Period
93.85 min
Inclination
53.1579°
Eccentricity
0.0000629
Mean motion
15.34405382 rev/d
Perigee alt
462.3 km
Apogee alt
463.1 km
Semi-major
6,840.8 km
B*
8.7042e-4
RAAN
276.6784°
Arg perigee
85.2962°
Mean anomaly
274.8113°
Rev number
7,057

§ Raw data

STARLINK-328161 63050U 25034X   26144.84679250  .00029152  00000+0  87042-3 0  99982 63050  53.1579 276.6784 0000629  85.2962 274.8113 15.34405382 70575

JSON: /api/v1/satellites/63050 · /tle

For live sub-satellite position, see the globe view (requires WebGL).

§ Visibility from observer

Set your observer location to see the next 7 days of passes ≥ 10°. The values pass through the URL so the page stays shareable.

No JS? Fill the form by hand. The geolocation button needs JavaScript.